Date,TemperatureHighF,TemperatureAvgF,TemperatureLowF,DewpointHighF,DewpointAvgF,DewpointLowF,HumidityHigh,HumidityAvg,HumidityLow,PressureMaxIn,PressureMinIn,WindSpeedMaxMPH,WindSpeedAvgMPH,GustSpeedMaxMPH,PrecipitationSumIn
2013-2-1,34.5,29.4,24.1,17.8,13.5,7.7,62,52,34,30.30,29.87,12,6,24,0.00
2013-2-2,34.6,26.1,19.1,22.1,11.0,6.2,88,54,33,30.37,30.11,8,4,14,0.00
2013-2-3,33.0,27.2,22.5,24.9,22.4,19.2,93,82,67,30.11,29.84,5,1,11,0.03
2013-2-4,33.5,28.0,23.1,24.4,15.1,11.4,87,59,41,30.05,29.87,11,5,19,0.00
2013-2-5,33.7,31.5,27.1,31.7,29.0,23.6,93,90,85,30.02,29.93,4,1,19,0.01
2013-2-6,43.5,35.4,29.6,31.3,25.4,9.9,94,69,41,30.41,29.96,11,4,16,0.01
2013-2-7,39.4,31.2,24.5,34.7,19.4,9.8,83,62,42,30.55,30.35,3,1,11,0.00
2013-2-8,41.4,37.2,29.4,40.5,35.0,28.0,98,92,83,30.34,29.65,11,6,21,1.05
2013-2-9,35.5,29.2,22.4,29.7,21.4,11.6,97,75,48,30.39,29.79,13,7,24,0.13
2013-2-10,36.8,26.3,12.7,25.9,16.8,8.7,87,68,40,30.54,30.38,5,1,11,0.29
2013-2-11,48.7,40.7,31.4,47.9,39.2,25.9,98,94,80,30.39,29.70,8,1,14,0.38
2013-2-12,48.8,41.7,33.0,42.2,29.8,25.5,98,64,46,30.02,29.78,12,5,20,0.00
2013-2-13,42.9,35.1,25.7,32.8,28.4,23.1,99,77,59,30.01,29.73,3,1,10,0.04
2013-2-14,49.4,38.6,31.2,38.2,33.8,29.8,97,84,50,30.07,29.74,6,2,10,0.06
2013-2-15,58.1,43.7,33.0,42.1,35.9,30.4,93,75,48,30.08,29.96,6,2,13,0.00
2013-2-16,45.4,37.8,32.6,35.0,29.6,19.0,90,73,57,30.00,29.77,10,5,21,0.00
2013-2-17,36.0,29.3,19.8,19.7,9.8,3.1,59,44,30,30.08,29.72,14,9,26,0.00
2013-2-18,39.3,27.5,18.0,16.2,8.6,3.2,57,45,30,30.32,30.08,13,6,23,0.00
2013-2-19,53.2,39.8,27.4,45.3,32.1,15.2,95,75,48,30.27,29.73,12,3,23,0.24
2013-2-20,39.0,32.1,26.0,29.3,16.6,11.2,69,53,40,30.06,29.78,13,8,25,0.00
2013-2-21,39.1,30.1,24.2,18.3,15.6,12.2,68,55,40,30.32,30.04,14,8,27,0.00
2013-2-22,39.8,33.3,26.5,35.9,26.3,17.8,86,75,66,30.44,30.30,6,2,17,0.00
2013-2-23,44.8,41.1,37.5,44.0,39.7,35.8,97,95,86,30.31,29.83,6,3,18,0.52
2013-2-24,51.5,40.6,33.8,41.2,33.8,23.8,97,78,53,30.03,29.78,11,5,16,0.02
2013-2-25,48.0,38.4,28.6,30.7,27.5,23.2,83,65,49,30.28,30.03,7,3,12,0.00
2013-2-26,44.6,37.0,27.2,38.4,32.7,25.1,95,85,73,30.33,29.88,7,3,17,0.18
2013-2-27,54.6,45.5,39.7,52.8,42.8,37.4,98,91,72,29.90,29.52,8,4,18,0.49
2013-2-28,53.3,44.2,37.8,41.9,36.1,30.0,94,74,53,29.68,29.59,7,2,13,0.01